Miscellaneous Local Product
Issued by NWS North Platte, NE

Home | Current Version | Previous Version | Text Only | Print | Product List | Glossary On
Versions: 1 2 3 4 5 6 7 8 9 10 11 12 13 14 15 16 17 18 19 20 21 22 23 24 25 26 27 28 29 30 31 32 33 34 35 36 37 38 39 40 41 42 43 44 45 46 47 48 49 50
000
AXUS43 KLBF 300210
MISLBF


WESTERN AND NORTH CENTRAL NEBRASKA HOURLY WEATHER ROUNDUP
NATIONAL WEATHER SERVICE NORTH PLATTE NE
900 PM CDT MON MAY 29 2017

NOTE: "FAIR" INDICATES FEW OR NO CLOUDS BELOW 12,000 FEET WITH NO
SIGNIFICANT WEATHER AND/OR OBSTRUCTIONS TO VISIBILITY.

NOTE: STATIONS NOT REPORTING VARIABLES SUCH AS SKY/WEATHER OR
PRESSURE ARE PROVIDED BY RAWS AND APRS NETWORKS AND ARE NOT UNDER
NATIONAL WEATHER SERVICE QUALITY CONTROL.

...OBSERVATIONS IN AND NEAR THE EASTERN PANHANDLE OF NEBRASKA...

CITY           SKY/WX    TMP DP  RH WIND       PRES   REMARKS
PINE RIDGE     CLEAR     61  38  42 NE7       30.10S
GORDON         FAIR      58  41  51 N7        30.11S HAZE
CHADRON        CLEAR     60  43  53 E6        30.10R
ALLIANCE       CLEAR     60  33  36 N9        30.12R
SIDNEY         PTCLDY    59  39  47 N8        30.16R
CRESCENT LAKE    N/A     63  31  29 N9G22       N/A
$$

...OBSERVATIONS IN NORTHERN NEBRASKA AND FAR SOUTHERN SOUTH DAKOTA...

CITY           SKY/WX    TMP DP  RH WIND       PRES   REMARKS
WINNER         FAIR      62  41  46 NW3       30.03S
VALENTINE      CLEAR     64  33  31 N9        30.06S
THEDFORD       CLEAR     64  36  35 N3        30.08S
AINSWORTH      CLEAR     61  38  42 N7        30.07R
O`NEILL        CLEAR     61  36  39 NW6       30.04S
ORD            CLEAR     62  38  40 N5        30.03S
BROKEN BOW     CLEAR     63  37  38 N5        30.06R
VALENTINE NWR    N/A     65  32  29 NW12G20     N/A
HALSEY           N/A     67  33  28 NW6G16      N/A
BUTTE            N/A     62  40  44 NW7         N/A
CHAMBERS         N/A     63  35  35 CALM        N/A
EWING            N/A     61  42  48 N3          N/A
$$

...OBSERVATIONS IN SOUTHWEST NEBRASKA AND FAR NORTHEAST COLORADO...

CITY           SKY/WX    TMP DP  RH WIND       PRES   REMARKS
WRAY           CLOUDY    64  43  45 SW8       30.14R
IMPERIAL       CLEAR     62  43  49 N6        30.10R
OGALLALA       CLEAR     63  40  44 N7        30.10R
NORTH PLATTE   CLEAR     61  41  47 NE3       30.07R
MCCOOK         CLEAR     67  42  40 NE6       30.07R
LEXINGTON      CLEAR     65  36  34 N5        30.06S
STAPLETON        N/A     62  37  40 CALM        N/A
GOTHENBURG       N/A     70  28  21 N5          N/A
CALLAWAY         N/A     68  37  31 N7          N/A
$$

...OBSERVATIONS IN CENTRAL LINCOLN COUNTY AREA...

CITY           SKY/WX    TMP DP  RH WIND       PRES   REMARKS
N.P. AIRPORT   CLEAR     61  41  47 NE3       30.07R
N.P. DOWNTOWN    N/A     68  39  34 CALM        N/A
N.P. SOUTHEAST   N/A     68  38  33 CALM        N/A
N.P. HILLCREST   N/A     65  37  34 NE6         N/A
$$

...SOME OBSERVATIONS FROM AROUND THE REGION...

CITY           SKY/WX    TMP DP  RH WIND       PRES   REMARKS
DENVER         PTCLDY    57  45  64 SE8       30.21R
LIMON          CLOUDY    52  48  86 CALM      30.22R
ASPEN          CLOUDY    59  28  30 NW7       30.22R
LARAMIE        CLOUDY    54  37  52 W6        30.26R
CASPER         CLEAR     58  43  57 NE8       30.20R
CHEYENNE       CLEAR     56  39  53 E5        30.23R
SCOTTSBLUFF    CLEAR     64  35  34 N8        30.13R
GRAND ISLAND   CLEAR     60  41  49 N8        30.05S
OMAHA          PTCLDY    64  42  44 NW8       30.01R
SIOUX FALLS    PTCLDY    57  45  64 NW7       29.98S
PIERRE         PTCLDY    61  35  37 N8        30.01R
RAPID CITY     CLEAR     62  28  27 N17       30.09R
BISMARCK       MOCLDY    62  36  37 NW10      29.99S
KANSAS CITY    PTCLDY    68  47  46 N7        29.99R
HILL CITY      CLEAR     68  51  54 CALM      30.06S
WICHITA        PTCLDY    76  50  40 N9        30.01R
DODGE CITY     PTCLDY    70  46  42 NE7       30.09R
OKLAHOMA CITY  PTCLDY    72  53  51 S6        30.00R
DALLAS         PTCLDY    80  51  36 E8        29.99R
AMARILLO       LGT RAIN  65  48  54 MISG      30.14R
$$




USA.gov is the U.S. government's official web portal to all federal, state and local government web resources and services.